KZ1X Weather Reports


Display with metric or nautical units.
time (UTC)temp
F
wind
direction
speed
MPH
gust
MPH
rain 1hr
in
rain 24hr
in
rain mn
in
humidity
%
barometer
mb
20260902113054 72 0 0.0 0.0 0.00 0.00 0.00 98 1019.1
20260902111545 72 0 0.0 0.0 0.00 0.00 0.00 98 1018.9
20260902110044 72 0 0.0 0.0 0.00 0.00 0.00 98 1018.7
20260902104600 72 0 0.0 0.0 0.00 0.00 0.00 98 1018.7
20260902103058 72 0 0.0 0.0 0.00 0.00 0.00 98 1018.6
20260902101550 72 0 0.0 0.0 0.00 0.00 0.00 98 1018.5
20260902100046 72 0 0.0 0.0 0.00 0.00 0.00 98 1018.4
20260902094540 72 0 0.0 0.0 0.00 0.00 0.00 98 1018.3
20260902093047 72 0 0.0 0.0 0.00 0.00 0.00 97 1018.2
20260902091542 72 0 0.0 0.0 0.00 0.00 0.00 97 1018.3
20260902090048 73 0 0.0 0.0 0.00 0.00 0.00 97 1018.1
20260902084547 73 0 0.0 0.0 0.00 0.00 0.00 97 1018.1
20260902083106 73 0 0.0 0.0 0.00 0.00 0.00 97 1017.8
20260902081543 73 0 0.0 0.0 0.00 0.00 0.00 97 1018.1
20260902080047 73 0 0.0 0.0 0.00 0.00 0.00 96 1017.8
20260902074547 73 0 0.0 0.0 0.00 0.00 0.00 96 1017.7
20260902073042 73 0 0.0 0.0 0.00 0.00 0.00 96 1017.7
20260902071548 73 0 0.0 0.0 0.00 0.00 0.00 96 1018.0
20260902070049 73 0 0.0 0.0 0.00 0.00 0.00 96 1017.9
20260902064548 74 0 0.0 0.0 0.00 0.00 0.00 95 1018.2
20260902063043 74 0 0.0 0.0 0.00 0.00 0.00 95 1018.0
20260902061553 74 0 0.0 0.0 0.00 0.00 0.00 95 1018.3
20260902060055 74 0 0.0 0.0 0.00 0.00 0.00 95 1018.1
20260902054550 74 0 0.0 0.0 0.00 0.00 0.00 95 1018.1
20260902053043 74 0 0.0 0.0 0.00 0.00 0.00 94 1017.9
20260902051540 74 0 0.0 0.0 0.00 0.00 0.00 94 1017.8
20260902050055 74 0 0.0 0.0 0.00 0.00 0.00 94 1017.8
20260902044550 75 0 0.0 0.0 0.00 0.00 0.00 94 1017.7
20260902043050 75 0 0.0 0.0 0.00 0.00 0.00 94 1017.6
20260902041548 75 0 0.0 0.0 0.00 0.00 0.00 94 1017.5
20260902040050 76 0 0.0 0.0 0.00 0.00 0.00 94 1017.6
20260902034544 76 0 0.0 0.0 0.00 0.00 0.00 93 1017.7
20260902033044 76 0 0.0 0.0 0.00 0.00 0.00 92 1017.6
20260902031551 76 0 0.0 0.0 0.00 0.00 0.00 92 1017.5
20260902030045 76 0 0.0 0.0 0.00 0.00 0.00 91 1017.6
20260902024546 77 0 0.0 0.0 0.00 0.00 0.00 90 1017.5
20260902023048 77 0 0.0 0.0 0.00 0.00 0.00 90 1017.5
20260902021547 77 0 0.0 0.0 0.00 0.00 0.00 90 1017.4
20260902020046 78 0 0.0 0.0 0.00 0.00 0.00 89 1017.2
20260902014547 78 0 0.0 0.0 0.00 0.00 0.00 89 1017.0
20260902013043 78 0 0.0 0.0 0.00 0.00 0.00 89 1016.8
20260902011612 79 0 0.0 0.0 0.00 0.00 0.00 88 1016.8
20260902010047 79 0 0.0 0.0 0.00 0.00 0.00 87 1016.6
20260902004549 80 0 0.0 0.0 0.00 0.00 0.00 86 1016.3
20260902003053 81 0 0.0 0.0 0.00 0.00 0.00 85 1016.3
20260902001544 81 0 0.0 0.0 0.00 0.00 0.00 84 1016.3
20260902000044 82 0 0.0 0.0 0.00 0.00 0.00 83 1016.2
20260901234549 83 0 0.0 0.0 0.00 0.00 0.00 81 1016.4
20260901233042 84 0 0.0 0.0 0.00 0.00 0.00 79 1016.4
20260901231606 85 0 0.0 0.0 0.00 0.00 0.00 76 1016.5
20260901230053 86 0 0.0 0.0 0.00 0.00 0.00 74 1016.7
20260901224542 86 0 0.0 0.0 0.00 0.00 0.00 70 1016.6
20260901223050 87 0 0.0 0.0 0.00 0.00 0.00 69 1016.6
20260901221609 87 0 0.0 0.0 0.00 0.00 0.00 66 1016.5
20260901220055 88 0 0.0 0.0 0.00 0.00 0.00 68 1016.5
20260901214550 89 0 0.0 2.0 0.00 0.00 0.00 66 1016.6
20260901213103 90 0 0.0 1.0 0.00 0.00 0.00 64 1016.6
20260901211547 91 0 0.0 1.0 0.00 0.00 0.00 63 1016.6
20260901210050 92 0 0.0 1.0 0.00 0.00 0.00 60 1016.8
20260901204600 93 0 0.0 3.0 0.00 0.00 0.00 60 1016.8
20260901203053 94 98 0.0 2.0 0.00 0.00 0.00 62 1016.9
20260901201552 94 214 0.0 2.0 0.00 0.00 0.00 56 1016.9
20260901200112 94 120 0.0 3.0 0.00 0.00 0.00 58 1017.2
20260901194556 93 0 0.0 5.0 0.00 0.00 0.00 59 1017.2
20260901193052 94 295 0.0 1.0 0.00 0.00 0.00 57 1017.4
20260901191623 94 57 0.0 2.0 0.00 0.00 0.00 57 1017.6
20260901190051 94 134 1.0 4.0 0.00 0.00 0.00 54 1018.0
20260901184543 94 0 0.0 5.0 0.00 0.00 0.00 58 1017.9
20260901183053 94 117 0.0 1.0 0.00 0.00 0.00 57 1018.0
20260901181611 94 154 1.0 5.0 0.00 0.00 0.00 57 1018.1
20260901180048 93 59 1.0 4.0 0.00 0.00 0.00 63 1018.2
20260901174546 93 0 1.0 4.0 0.00 0.00 0.00 61 1018.4
20260901173041 93 160 1.0 3.0 0.00 0.00 0.00 61 1018.4
20260901171559 93 61 1.0 4.0 0.00 0.00 0.00 61 1018.4
20260901170057 92 241 0.0 3.0 0.00 0.00 0.00 68 1018.5
20260901164550 91 84 0.0 4.0 0.00 0.00 0.00 67 1018.5
20260901163047 91 0 0.0 1.0 0.00 0.00 0.00 68 1018.8
20260901161552 90 167 0.0 2.0 0.00 0.00 0.00 69 1018.9
20260901160105 90 94 0.0 3.0 0.00 0.00 0.00 69 1019.3
20260901154550 89 0 0.0 1.0 0.00 0.00 0.00 71 1019.3
20260901153102 88 0 0.0 2.0 0.00 0.00 0.00 73 1019.6
20260901151548 86 101 0.0 1.0 0.00 0.00 0.00 75 1019.8
20260901150053 85 187 1.0 2.0 0.00 0.00 0.00 77 1019.8
20260901144550 84 0 0.0 2.0 0.00 0.00 0.00 82 1019.9
20260901143110 82 127 0.0 1.0 0.00 0.00 0.00 85 1019.9
20260901141547 81 0 0.0 1.0 0.00 0.00 0.00 88 1019.7
20260901140127 81 0 0.0 3.0 0.00 0.00 0.00 86 1019.7
20260901134545 79 0 0.0 2.0 0.00 0.00 0.00 90 1019.7
20260901133049 78 0 0.0 2.0 0.00 0.00 0.00 92 1019.6
20260901131546 76 0 0.0 1.0 0.00 0.00 0.00 94 1019.6
20260901130044 75 0 0.0 2.0 0.00 0.00 0.00 96 1019.6
20260901124555 73 0 0.0 0.0 0.00 0.00 0.00 97 1019.4
20260901123048 72 0 0.0 0.0 0.00 0.00 0.00 98 1019.5
20260901121546 72 0 0.0 0.0 0.00 0.00 0.00 98 1019.5
20260901120046 71 0 0.0 0.0 0.00 0.00 0.00 98 1019.4
20260901114550 71 0 0.0 0.0 0.00 0.00 0.00 98 1019.2